Falfurrias, TX

9:55 AM CDT on May 28, 2017 (GMT -0500)
Falfurrias

Weather History for KBKS - November, 2012

Change the Weather History Date:

Friday, November 2, 2012

  Actual Average (KNQI) Record (KNQI)
Temperature  
Mean Temperature 72 °F -  
Max Temperature 88 °F 77 °F 90 °F (2016)
Min Temperature 58 °F 57 °F 43 °F (2005)
Cooling Degree Days 8    
Growing Degree Days 22 (Base 50)    
Moisture  
Dew Point 59 °F    
Average Humidity 66    
Maximum Humidity 95    
Minimum Humidity 27    
Precipitation  
Precipitation 0.00 in - - ()
Sea Level Pressure  
Sea Level Pressure 29.97 in    
Wind  
Wind Speed 5 mph (SE)    
Max Wind Speed 16 mph    
Max Gust Speed 21 mph    
Visibility 8 miles    
Events      
Averages and records for this station are not official NWS values.
T = Trace of Precipitation, MM = Missing Value Source: NWS Daily Summary

Daily Weather History Graph

Daily Weather History Graph

Search for Another Location

Airport or City:

Trip Planner

Search our weather history database for the weather conditions in past years. The results will help you decide how hot, cold, wet, or windy it might be!

Date:

Astronomy

Nov. 02, 2012 Rise Set
Actual Time 7:43 AM CDT 6:47 PM CDT
Civil Twilight 7:19 AM CDT 7:12 PM CDT
Nautical Twilight 6:51 AM CDT 7:39 PM CDT
Astronomical Twilight 6:24 AM CDT 8:07 PM CDT
Moon 9:46 PM CDT (11/2) 10:54 AM CDT (11/2)
Length of Visible Light 11h 52m
Length of Day
11h 04m
Waning Gibbous, 87% of the Moon is Illuminated
Nov 2
Waning Gibbous
Nov 6
Last Quarter
Nov 13
New
Nov 20
First Quarter
Nov 28
Full

Hourly Weather History & Observations

Time (CDT) Temp. Heat Index Dew Point Humidity Pressure Visibility Wind Dir Wind Speed Gust Speed Precip Events Conditions
12:15 AM 66.2 °F - 61.9 °F 86% 30.01 in 10.0 mi SE 4.6 mph - N/A   Clear
12:35 AM 65.3 °F - 61.5 °F 88% 30.00 in 10.0 mi SE 5.8 mph - N/A   Clear
1:15 AM 65.3 °F - 61.7 °F 88% 30.00 in 10.0 mi SE 3.5 mph - N/A   Clear
1:35 AM 64.4 °F - 61.0 °F 89% 30.00 in 10.0 mi Calm Calm - N/A   Clear
1:55 AM 63.3 °F - 60.4 °F 90% 29.99 in 10.0 mi Calm Calm - N/A   Clear
2:15 AM 63.0 °F - 60.4 °F 91% 29.99 in 10.0 mi Calm Calm - N/A   Clear
2:55 AM 62.2 °F - 59.9 °F 92% 29.99 in 7.0 mi Calm Calm - N/A   Clear
3:15 AM 61.9 °F - 59.9 °F 93% 29.99 in 4.0 mi Calm Calm - N/A   Clear
3:35 AM 61.7 °F - 59.7 °F 93% 29.98 in 1.5 mi Calm Calm - N/A   Unknown
3:55 AM 61.0 °F - 59.2 °F 94% 29.98 in 0.5 mi Calm Calm - N/A   Unknown
4:15 AM 61.2 °F - 59.4 °F 94% 29.98 in 0.8 mi Calm Calm - N/A   Unknown
4:35 AM 60.4 °F - 58.8 °F 94% 29.98 in 0.2 mi Calm Calm - N/A   Unknown
4:55 AM 59.0 °F - 57.4 °F 94% 29.98 in 0.2 mi Calm Calm - N/A   Unknown
5:15 AM 59.0 °F - 57.4 °F 94% 29.98 in 0.2 mi Calm Calm - N/A   Mostly Cloudy
5:35 AM 58.6 °F - 57.2 °F 95% 29.98 in 0.5 mi Calm Calm - N/A   Unknown
6:15 AM 59.9 °F - 58.3 °F 94% 29.98 in 1.5 mi SE 3.5 mph - N/A   Unknown
6:55 AM 59.0 °F - 57.4 °F 94% 29.99 in 1.2 mi Calm Calm - N/A   Unknown
7:15 AM 58.1 °F - 56.7 °F 95% 29.99 in 5.0 mi Calm Calm - N/A   Clear
7:35 AM 58.3 °F - 56.8 °F 95% 30.00 in 7.0 mi Calm Calm - N/A   Clear
7:55 AM 58.1 °F - 56.5 °F 94% 30.00 in 7.0 mi Calm Calm - N/A   Clear
8:15 AM 58.1 °F - 56.5 °F 94% 30.00 in 3.0 mi Calm Calm - N/A   Clear
8:35 AM 59.0 °F - 57.4 °F 94% 30.01 in 7.0 mi Calm Calm - N/A   Clear
9:15 AM 63.5 °F - 62.1 °F 95% 30.01 in 10.0 mi East 4.6 mph - N/A   Clear
9:35 AM 65.5 °F - 63.7 °F 94% 30.02 in 10.0 mi Calm Calm - N/A   Clear
9:55 AM 70.2 °F - 64.2 °F 81% 30.02 in 10.0 mi SE 6.9 mph - N/A   Clear
10:15 AM 74.1 °F - 63.3 °F 69% 30.03 in 10.0 mi SSE 8.1 mph - N/A   Clear
10:35 AM 75.6 °F - 63.0 °F 65% 30.03 in 10.0 mi South 9.2 mph - N/A   Clear
10:55 AM 77.7 °F - 62.2 °F 59% 30.03 in 10.0 mi SSE 10.4 mph - N/A   Clear
11:15 AM 78.3 °F - 61.3 °F 56% 30.03 in 10.0 mi SSE 12.7 mph 17.3 mph N/A   Scattered Clouds
11:35 AM 79.0 °F - 60.1 °F 52% 30.02 in 10.0 mi South 13.8 mph 18.4 mph N/A   Scattered Clouds
11:55 AM 81.5 °F 81.8 °F 59.5 °F 47% 30.01 in 10.0 mi South 15.0 mph - N/A   Clear
12:15 PM 81.7 °F 81.8 °F 58.6 °F 45% 30.01 in 10.0 mi SSE 12.7 mph 18.4 mph N/A   Scattered Clouds
12:35 PM 82.9 °F 82.6 °F 57.7 °F 42% 30.00 in 10.0 mi SSE 12.7 mph 20.7 mph N/A   Scattered Clouds
12:55 PM 83.1 °F 82.7 °F 57.6 °F 42% 29.98 in 10.0 mi South 15.0 mph 18.4 mph N/A   Scattered Clouds
1:15 PM 84.2 °F 83.0 °F 55.0 °F 37% 29.97 in 10.0 mi South 9.2 mph 19.6 mph N/A   Scattered Clouds
1:35 PM 84.9 °F 83.6 °F 55.0 °F 36% 29.96 in 10.0 mi ESE 9.2 mph 18.4 mph N/A   Scattered Clouds
1:55 PM 85.3 °F 83.5 °F 53.2 °F 33% 29.95 in 10.0 mi South 15.0 mph 19.6 mph N/A   Scattered Clouds
2:15 PM 85.5 °F 83.7 °F 53.2 °F 33% 29.94 in 10.0 mi SE 9.2 mph 16.1 mph N/A   Scattered Clouds
2:35 PM 87.3 °F - 52.9 °F 31% 29.93 in 10.0 mi South 11.5 mph - N/A   Scattered Clouds
2:55 PM 86.0 °F - 52.5 °F 32% 29.92 in 10.0 mi SE 6.9 mph - N/A   Mostly Cloudy
3:15 PM 87.1 °F - 51.8 °F 30% 29.91 in 10.0 mi South 11.5 mph 18.4 mph N/A   Mostly Cloudy
3:35 PM 87.1 °F - 52.2 °F 30% 29.91 in 10.0 mi South 9.2 mph - N/A   Mostly Cloudy
3:55 PM 87.1 °F - 49.6 °F 27% 29.90 in 10.0 mi South 5.8 mph - N/A   Mostly Cloudy
4:15 PM 86.5 °F - 51.1 °F 29% 29.89 in 10.0 mi South 6.9 mph 18.4 mph N/A   Scattered Clouds
4:35 PM 86.0 °F - 51.3 °F 30% 29.89 in 7.0 mi South 8.1 mph - N/A   Scattered Clouds
4:55 PM 86.9 °F - 50.5 °F 28% 29.89 in 10.0 mi SE 9.2 mph - N/A   Clear
5:15 PM 86.2 °F 85.0 °F 56.8 °F 37% 29.89 in 10.0 mi ESE 16.1 mph 20.7 mph N/A   Scattered Clouds
5:35 PM 83.3 °F 82.6 °F 56.8 °F 40% 29.89 in 10.0 mi SE 9.2 mph 17.3 mph N/A   Scattered Clouds
5:55 PM 82.4 °F 82.3 °F 58.6 °F 44% 29.90 in 10.0 mi East 15.0 mph 20.7 mph N/A   Clear
6:15 PM 81.7 °F 81.8 °F 58.5 °F 45% 29.90 in 10.0 mi ESE 10.4 mph 17.3 mph N/A   Clear
6:35 PM 80.6 °F 81.1 °F 59.0 °F 48% 29.90 in 10.0 mi ESE 15.0 mph - N/A   Clear
6:55 PM 79.7 °F - 58.6 °F 48% 29.91 in 10.0 mi ESE 11.5 mph 19.6 mph N/A   Clear
7:15 PM 79.0 °F - 59.2 °F 51% 29.91 in 10.0 mi ESE 10.4 mph 18.4 mph N/A   Scattered Clouds
7:35 PM 78.1 °F - 60.6 °F 55% 29.92 in 10.0 mi ESE 10.4 mph - N/A   Scattered Clouds
8:15 PM 76.6 °F - 61.5 °F 59% 29.93 in 10.0 mi ESE 8.1 mph - N/A   Clear
8:35 PM 76.3 °F - 62.2 °F 62% 29.94 in 10.0 mi SE 8.1 mph - N/A   Clear
8:55 PM 76.1 °F - 62.6 °F 63% 29.94 in 10.0 mi SE 10.4 mph 17.3 mph N/A   Clear
9:15 PM 75.4 °F - 62.8 °F 65% 29.95 in 10.0 mi SE 10.4 mph 16.1 mph N/A   Clear
9:35 PM 75.2 °F - 63.0 °F 66% 29.96 in 10.0 mi SE 10.4 mph - N/A   Clear
9:55 PM 74.7 °F - 63.1 °F 67% 29.96 in 10.0 mi SE 10.4 mph 16.1 mph N/A   Clear
10:15 PM 74.3 °F - 63.1 °F 68% 29.96 in 10.0 mi SE 10.4 mph - N/A   Clear
10:35 PM 73.6 °F - 63.1 °F 70% 29.96 in 10.0 mi SE 11.5 mph - N/A   Clear
11:15 PM 72.9 °F - 63.1 °F 71% 29.98 in 10.0 mi SE 8.1 mph - N/A   Clear
11:35 PM 72.0 °F - 63.1 °F 74% 29.98 in 10.0 mi SE 8.1 mph - N/A   Clear
11:55 PM 71.6 °F - 63.3 °F 75% 29.98 in 10.0 mi SE 6.9 mph - N/A   Clear